STARLINK-34576 (64701 NORAD) Tracking and Keplerian Element Data

This shows tracking and keplerian element data for the satellite.

Feedback or suggestion? Click here.




ElementValue
Catalog64701
NameSTARLINK-34576
Epoch Orbit2753
Epoch Day353.89159565
Epoch Year2025
RAAN155.0004
Inclination70.0011
Eccentricity0.0002446
Argument of Perigee273.6723
Mean Anonmoly86.4155
Mean Motion14.9591198
Decay Rate1.044E-05
L11 64701U 25142F 25353.89159565 .00001044 00000+0 10122-3 0 9995
L22 64701 70.0011 155.0004 0002446 273.6723 86.4155 14.95911980 27533



Live tracking and technical data element details for STARLINK-34576 (NORAD 64701). STARLINK-34576 can be tracked NOW for your location showing map with azimuth and elevation plus other details from your city location.







IsCatalogInMostPopularTable: catalog: 64701, numindb: 5
Update: records affected: 1



GetName: 64701 STARLINK-34576

Hit Count: updated at: Sat, 07 Feb 2026 07:01:42 GMT